sat.trackr.live / text

‹ back to catalog

KUIPER-00232

NORAD 67148 · 2025-301R

PAYLOAD ACTIVE UNKNOWN

§ Identity

Operator
Country
US
Launch date
2025-12-16
Launch site
AFETR
Launch vehicle
Mass (kg)
RCS (m²)

External: N2YO · Heavens-Above · Gunter

§ Orbital elements

Epoch: 2026-09-20T08:20:27.652128Z

Period
97.30 min
Inclination
51.8990°
Eccentricity
0.0000491
Mean motion
14.79929345 rev/d
Perigee alt
629.2 km
Apogee alt
629.9 km
Semi-major
7,007.7 km
B*
2.3746e-4
RAAN
284.8669°
Arg perigee
66.5117°
Mean anomaly
293.5897°
Rev number
4,255

§ Raw data

KUIPER-002321 67148U 25301R   26263.34754227  .00001589  00000+0  23746-3 0  99972 67148  51.8990 284.8669 0000491  66.5117 293.5897 14.79929345 42555

JSON: /api/v1/satellites/67148 · /tle

For live sub-satellite position, see the globe view (requires WebGL).

§ Visibility from observer

Set your observer location to see the next 7 days of passes ≥ 10°. The values pass through the URL so the page stays shareable.

No JS? Fill the form by hand. The geolocation button needs JavaScript.